[[{"header":{"parameterUnit":"m.s-1","parameterCategory":1,"la1":30.2991,"la2":30.254,"lo1":-89.0895,"lo2":-89.0444,"dy":0.0017,"dx":0.0017,"nx":28,"ny":28,"refTime":"2025-12-19T09:00:00:Z","depth":0,"parameterNumber":2,"parameterNumberName":"U-component_of_WINDS"},"data":[0,0,0,0,0,0,0,0,0,0,0,0,0,0,0,0,0,0,0,0,0,0,0,0,0,0,0,0,0,0,0,0,0,0,0,0,0,0,0,0,0,0,0,0,0,0,0,0,0,0,0,0,0,0,0,0,0,0,-0.9844,-0.9843,0,-0.9758,-0.9757,-0.9756,-0.9718,-0.9718,-0.9719,-0.9719,-0.9629,-0.9626,-0.9624,0,0,0,0,0,0,0,0,0,0,0,0,0,-0.9971,-0.9969,-0.9844,-0.9843,-0.9842,-0.9758,-0.9757,-0.9756,-0.9718,-0.9718,-0.9719,-0.9719,-0.963,-0.9627,-0.9624,0,0,0,0,0,0,0,0,0,0,0,0,0,-0.9904,-0.9969,-0.9844,-0.9813,-0.9809,-0.9758,-0.9757,-0.9755,-0.9718,-0.9718,-0.9719,-0.9719,-0.9631,-0.9627,-0.9623,-0.9596,0,0,-0.9612,-0.961,0,0,0,0,0,0,0,0,-0.9908,-0.9899,-0.9819,-0.9815,-0.9811,-0.9749,-0.9769,-0.9702,-0.9718,-0.9753,-0.9719,-0.9719,-0.9668,-0.9662,-0.9645,-0.9592,-0.9588,-0.9611,-0.9609,-0.9607,-0.9606,0,0,0,0,0,0,0,-0.9912,-0.9903,-0.981,-0.9817,-0.9813,-0.9802,-0.9793,-0.9756,-0.9711,-0.975,-0.9747,-0.9737,-0.9666,-0.9649,-0.9643,-0.9587,-0.9611,-0.9608,-0.9606,-0.9604,-0.9503,-0.9503,0,0,0,0,0,0,-0.9923,-0.9907,-0.9812,-0.9807,-0.9861,-0.98,-0.9789,-0.9769,-0.9711,-0.9702,-0.9737,-0.9736,-0.9655,-0.9647,-0.9639,-0.9602,-0.9607,-0.9604,-0.9602,-0.9504,-0.9503,-0.9503,0,0,0,0,0,0,-0.9925,-0.9915,-0.9816,-0.9856,-0.9843,-0.9797,-0.9775,-0.9767,-0.9749,-0.9701,-0.9693,-0.9728,-0.9655,-0.9645,-0.9606,-0.9598,-0.9602,-0.9599,-0.9504,-0.9504,-0.9503,-0.9528,0,0,0,0,0,0,-0.9929,-0.9916,-0.9906,-0.9856,-0.9841,-0.9786,-0.9774,-0.9765,-0.9743,-0.974,-0.969,-0.9682,-0.9654,-0.9612,-0.9603,-0.9593,-0.9596,-0.9505,-0.9504,-0.9503,-0.9528,-0.9528,-0.9529,0,0,0,0,0,-0.9934,-0.9917,-0.9906,-0.9895,-0.9828,-0.9786,-0.9777,-0.9746,-0.9743,-0.9732,-0.97,-0.9684,-0.9601,-0.9609,-0.9598,-0.9587,-0.9505,-0.9504,-0.9503,-0.9527,-0.9528,-0.9529,0,0,0,0,0,0,-0.9967,-0.991,-0.9897,-0.9863,-0.983,-0.9779,-0.9765,-0.9748,-0.9714,-0.9713,-0.9675,-0.9664,-0.9628,-0.9604,-0.9614,-0.9556,-0.9551,-0.9548,-0.9573,-0.9574,-0.9574,-0.9581,-0.9593,0,0,0,0,0,-0.997,-0.9942,-0.9893,-0.9868,-0.9851,-0.9811,-0.9791,-0.977,-0.9733,-0.9719,-0.9685,-0.9649,-0.9614,-0.9593,-0.9559,-0.9524,-0.9511,-0.951,-0.9511,-0.9512,-0.9509,-0.9486,-0.9485,-0.95,-0.95,-0.95,0,0,-0.9977,-0.9942,-0.9927,-0.9873,-0.9845,-0.9814,-0.9799,-0.9769,-0.9745,-0.9714,-0.9676,-0.9649,-0.9606,-0.9569,-0.9551,-0.9548,-0.9502,-0.951,-0.9511,-0.9508,-0.9485,-0.9484,-0.9483,-0.9499,-0.9499,-0.9499,0,0,-0.9973,-0.9945,-0.992,-0.9891,-0.9848,-0.982,-0.9814,-0.9766,-0.9747,-0.9708,-0.9683,-0.9654,-0.9597,-0.9566,-0.9543,-0.9526,-0.9508,-0.9515,-0.9518,-0.9496,-0.9495,-0.9494,-0.9486,-0.9484,-0.9513,-0.9513,-0.9513,0,-0.9987,-0.9942,-0.9909,-0.9879,-0.9855,-0.9825,-0.9798,-0.9772,-0.9719,-0.9703,-0.97,-0.9625,-0.9594,-0.9548,-0.9544,-0.9527,-0.9517,-0.9521,-0.9498,-0.9496,-0.9495,-0.9487,-0.9484,-0.9514,-0.9514,-0.9514,-0.9514,0,-0.9959,-0.9928,-0.9913,-0.9862,-0.9837,-0.9809,-0.977,-0.9748,-0.9728,-0.9701,-0.966,-0.9622,-0.9578,-0.9566,-0.9547,-0.9516,-0.9515,-0.9506,-0.95,-0.9495,-0.9487,-0.9483,-0.9516,-0.9515,-0.9515,-0.9515,0,0,-0.9976,-0.9906,-0.9901,-0.9877,-0.9826,-0.98,-0.9769,-0.9726,-0.9707,-0.9671,-0.9643,-0.9594,-0.9584,-0.9558,-0.9535,-0.9516,-0.9501,-0.9508,-0.9506,-0.9507,-0.9463,-0.947,-0.9467,-0.9489,-0.9489,-0.9488,-0.9466,0,-0.9964,-0.9909,-0.9877,-0.9834,-0.9803,-0.9773,-0.9746,-0.971,-0.9683,-0.9652,-0.9622,-0.9586,-0.9577,-0.9561,-0.954,-0.9508,-0.9492,-0.9509,-0.9461,-0.946,-0.9473,-0.9463,-0.9471,-0.9452,-0.9463,-0.9462,-0.9462,0,-0.9944,-0.9908,-0.9862,-0.9812,-0.9798,-0.9774,-0.9731,-0.9702,-0.966,-0.9642,-0.9612,-0.9588,-0.9552,-0.955,-0.9499,-0.9511,-0.9489,-0.947,-0.9468,-0.9462,-0.9461,-0.9456,-0.9446,-0.9443,-0.9457,-0.9457,-0.9458,0,-0.9959,-0.9899,-0.9863,-0.9843,-0.9784,-0.9768,-0.9742,-0.9701,-0.9676,-0.9639,-0.9622,-0.958,-0.9557,-0.9525,-0.949,-0.9492,-0.9442,-0.9437,-0.9424,-0.9425,-0.9415,-0.9416,-0.94,-0.9402,-0.9402,-0.9402,-0.9403,0,-0.9949,-0.9922,-0.9868,-0.9846,-0.9814,-0.9777,-0.9745,-0.9717,-0.968,-0.965,-0.9621,-0.9594,-0.955,-0.9516,-0.9489,-0.9449,-0.944,-0.9422,-0.9415,-0.9425,-0.9427,-0.941,-0.941,-0.9402,-0.9402,-0.9402,-0.9402,0,-0.9961,-0.9924,-0.9882,-0.9829,-0.9815,-0.9793,-0.9747,-0.9723,-0.9694,-0.9657,-0.9646,-0.9599,-0.9558,-0.952,-0.9466,-0.9447,-0.9407,-0.9398,-0.9421,-0.9417,-0.9406,-0.9407,-0.9378,-0.9372,-0.9379,-0.9379,-0.9379,0,-0.9957,-0.9935,-0.9879,-0.9857,-0.9832,-0.9797,-0.9772,-0.9733,-0.9708,-0.9657,-0.9639,-0.9596,-0.9559,-0.9495,-0.9455,-0.9413,-0.9402,-0.9395,-0.9395,-0.9405,-0.94,-0.9402,-0.9398,-0.9395,-0.9396,-0.9396,-0.9396,0,-0.9953,-0.9935,-0.99,-0.9858,-0.9828,-0.9793,-0.9757,-0.974,-0.9695,-0.9667,-0.9625,-0.9596,-0.9539,-0.9496,-0.9449,-0.9421,-0.94,-0.9396,-0.939,-0.9399,-0.9413,-0.9404,-0.9422,-0.9397,-0.9396,-0.9396,-0.9396,-0.9396,-0.9955,-0.9933,-0.989,-0.9851,-0.9819,-0.9786,-0.976,-0.9727,-0.9691,-0.9642,-0.9621,-0.9578,-0.9534,-0.9468,-0.944,-0.9404,-0.94,-0.9392,-0.939,-0.9388,-0.939,-0.9419,-0.9395,-0.9395,-0.9395,-0.9395,-0.9395,0,-0.9949,-0.9919,-0.9884,-0.9833,-0.9802,-0.9785,-0.9743,-0.9718,-0.968,-0.9641,-0.9605,-0.9555,-0.9512,-0.9469,-0.9423,-0.9403,-0.9392,-0.9392,-0.9393,-0.9386,-0.9397,-0.9406,-0.9401,-0.9401,-0.9401,-0.9401,-0.9401,-0.9401,-0.9942,-0.9904,-0.988,-0.9825,-0.9794,-0.9752,-0.9729,-0.9697,-0.9665,-0.9611,-0.9575,-0.9547,-0.9505,-0.9456,-0.9415,-0.9403,-0.9387,-0.939,-0.9375,-0.9386,-0.9386,-0.9386,-0.9393,-0.9387,-0.9387,-0.9367,-0.9367,-0.9367]},{"header":{"parameterUnit":"m.s-1","parameterCategory":1,"la1":30.2991,"la2":30.254,"lo1":-89.0895,"lo2":-89.0444,"dy":0.0017,"dx":0.0017,"nx":28,"ny":28,"refTime":"2025-12-19T09:00:00:Z","depth":0,"parameterNumber":3,"parameterNumberName":"V-component_of_WINDS"},"data":[0,0,0,0,0,0,0,0,0,0,0,0,0,0,0,0,0,0,0,0,0,0,0,0,0,0,0,0,0,0,0,0,0,0,0,0,0,0,0,0,0,0,0,0,0,0,0,0,0,0,0,0,0,0,0,0,0,0,2.0533,2.0534,0,2.0559,2.056,2.056,2.0559,2.0559,2.0558,2.0558,2.0587,2.0588,2.0589,0,0,0,0,0,0,0,0,0,0,0,0,0,2.0484,2.0485,2.0533,2.0534,2.0534,2.0559,2.056,2.056,2.0559,2.0559,2.0558,2.0558,2.0587,2.0588,2.0589,0,0,0,0,0,0,0,0,0,0,0,0,0,2.0507,2.0485,2.0533,2.0536,2.0537,2.0559,2.056,2.056,2.0559,2.0559,2.0558,2.0558,2.0586,2.0588,2.059,2.0611,0,0,2.0595,2.0595,0,0,0,0,0,0,0,0,2.0506,2.0509,2.0536,2.0536,2.0537,2.0555,2.0553,2.0577,2.0559,2.0551,2.0558,2.0557,2.0577,2.058,2.0586,2.0612,2.0614,2.0595,2.0596,2.0597,2.0597,0,0,0,0,0,0,0,2.0504,2.0508,2.0544,2.0536,2.0537,2.0537,2.054,2.0558,2.0567,2.0552,2.0552,2.0555,2.0577,2.0584,2.0586,2.0614,2.0595,2.0596,2.0597,2.0598,2.0659,2.0659,0,0,0,0,0,0,2.0502,2.0507,2.0543,2.0544,2.052,2.0538,2.0541,2.055,2.0567,2.0569,2.0555,2.0554,2.0581,2.0584,2.0587,2.0613,2.0597,2.0598,2.0599,2.0658,2.0659,2.0659,0,0,0,0,0,0,2.0501,2.0505,2.0542,2.0526,2.053,2.054,2.055,2.0551,2.0558,2.0569,2.0571,2.056,2.0581,2.0585,2.0605,2.0614,2.0599,2.06,2.0657,2.0658,2.0659,2.0665,0,0,0,0,0,0,2.0499,2.0505,2.0513,2.0526,2.0531,2.0558,2.055,2.0552,2.056,2.056,2.0574,2.0576,2.0581,2.0602,2.0606,2.0616,2.0602,2.0656,2.0658,2.0659,2.0664,2.0666,2.0667,0,0,0,0,0,2.0498,2.0514,2.0513,2.0518,2.0541,2.0559,2.0562,2.0566,2.0561,2.0569,2.0576,2.0576,2.0612,2.0604,2.0609,2.0619,2.0656,2.0657,2.0659,2.0663,2.0665,2.0667,0,0,0,0,0,0,2.0503,2.0516,2.0515,2.0536,2.0546,2.0559,2.0569,2.0569,2.0582,2.0581,2.0586,2.059,2.0609,2.0616,2.0607,2.064,2.0633,2.0636,2.0635,2.0637,2.0639,2.0637,2.0603,0,0,0,0,0,2.0507,2.0519,2.053,2.0547,2.0552,2.056,2.0568,2.057,2.0581,2.0586,2.0595,2.0606,2.062,2.0629,2.0643,2.0665,2.0668,2.0674,2.0676,2.0677,2.0679,2.0691,2.0693,2.0664,2.0664,2.0664,0,0,2.0514,2.0523,2.0531,2.0549,2.0557,2.057,2.0564,2.0578,2.0588,2.0588,2.0607,2.0614,2.0627,2.0647,2.0657,2.0654,2.0688,2.0679,2.068,2.0681,2.0692,2.0695,2.0698,2.0665,2.0665,2.0664,0,0,2.0535,2.0543,2.0558,2.0566,2.0578,2.0582,2.0586,2.0598,2.0602,2.0621,2.0621,2.0633,2.0657,2.0666,2.0674,2.0696,2.0696,2.07,2.071,2.0721,2.0723,2.0725,2.0733,2.0736,2.0702,2.0702,2.0702,0,2.0544,2.0563,2.0566,2.058,2.0588,2.0587,2.0602,2.061,2.0626,2.0632,2.0628,2.0657,2.0666,2.0688,2.0693,2.07,2.0704,2.0699,2.0723,2.0725,2.0727,2.0734,2.0737,2.0703,2.0703,2.0703,2.0703,0,2.0572,2.0586,2.0597,2.0611,2.062,2.0635,2.064,2.0649,2.065,2.0655,2.0673,2.0684,2.0699,2.0704,2.0706,2.0727,2.0724,2.0721,2.0715,2.073,2.0737,2.074,2.0703,2.0703,2.0703,2.0703,0,0,2.0599,2.0613,2.0617,2.0623,2.0635,2.0646,2.066,2.0674,2.0681,2.0692,2.0704,2.0724,2.0721,2.073,2.0732,2.0742,2.0758,2.0738,2.0738,2.0741,2.0781,2.0783,2.0787,2.0758,2.0759,2.0759,2.078,0,2.0621,2.0646,2.0648,2.067,2.0683,2.0681,2.0694,2.0703,2.0708,2.0719,2.0725,2.0738,2.0733,2.0738,2.0748,2.0754,2.0767,2.0753,2.077,2.077,2.0767,2.079,2.0793,2.0812,2.0783,2.0783,2.0784,0,2.065,2.066,2.0684,2.0693,2.0698,2.0709,2.0722,2.0732,2.0742,2.0745,2.0754,2.0755,2.077,2.0762,2.0783,2.0773,2.078,2.0784,2.0785,2.0787,2.0778,2.0793,2.0818,2.0821,2.0788,2.0788,2.0787,0,2.0667,2.0686,2.0703,2.0708,2.0719,2.0727,2.0732,2.0742,2.0749,2.076,2.0765,2.0778,2.0785,2.0795,2.0799,2.0793,2.0819,2.0812,2.0822,2.0822,2.0828,2.0828,2.0855,2.0832,2.0832,2.0832,2.0832,0,2.0691,2.0706,2.071,2.072,2.0736,2.0738,2.0754,2.0759,2.0767,2.0778,2.0778,2.0788,2.0793,2.0805,2.0808,2.0824,2.0828,2.083,2.0831,2.0831,2.083,2.0835,2.0834,2.0833,2.0833,2.0833,2.0833,0,2.0713,2.0716,2.0734,2.0743,2.0745,2.0756,2.0764,2.0774,2.0778,2.0792,2.0795,2.0802,2.0815,2.082,2.0836,2.0838,2.0857,2.0857,2.0853,2.0854,2.0864,2.0863,2.0896,2.09,2.0874,2.0874,2.0875,0,2.0729,2.0739,2.0749,2.0755,2.076,2.0772,2.0779,2.0782,2.0789,2.0801,2.0809,2.0822,2.0832,2.0853,2.086,2.0872,2.0872,2.0883,2.0874,2.0872,2.0872,2.0871,2.0872,2.0884,2.0885,2.0885,2.0885,0,2.0756,2.0756,2.0767,2.0777,2.0785,2.0794,2.0802,2.0808,2.0812,2.082,2.0833,2.0841,2.0857,2.0869,2.0881,2.0887,2.0887,2.0887,2.089,2.089,2.0887,2.0889,2.0858,2.0887,2.0887,2.0887,2.0887,2.0886,2.0775,2.0784,2.0791,2.0802,2.0808,2.0816,2.0825,2.0829,2.084,2.0852,2.0853,2.0866,2.0875,2.0891,2.0898,2.0909,2.0906,2.091,2.0911,2.0912,2.0913,2.0885,2.0911,2.0911,2.0911,2.0911,2.0911,0,2.0802,2.0806,2.0816,2.0827,2.0835,2.0833,2.0841,2.0849,2.086,2.0868,2.0878,2.0892,2.0904,2.091,2.0922,2.093,2.093,2.0933,2.0932,2.0934,2.0915,2.0911,2.0932,2.0932,2.0932,2.0932,2.0932,2.0932,2.0817,2.0832,2.0833,2.0851,2.0855,2.0867,2.0873,2.0879,2.0885,2.0901,2.091,2.0914,2.0921,2.0933,2.0944,2.0945,2.095,2.0953,2.0955,2.0937,2.0935,2.0933,2.0929,2.0954,2.0954,2.0972,2.0972,2.0973]}]]